This is the latest recevied weather packets stored in our database for station/object KQ4DLB-13. If no packets are shown the sender has not sent any weather packets the latest 1 day(s).
| Time | Temp. | Humidity | Pressure | Rain* | Wind** | Luminosity | Snow |
|---|---|---|---|---|---|---|---|
| 1778034002 | 19.44° C | 77% | 982.5 hPa | 0 mm | 2.24 m/s, 153° | - | - |
| 1778033702 | 19.44° C | 77% | 982.5 hPa | 0 mm | 2.68 m/s, 356° | - | - |
| 1778033402 | 19.44° C | 77% | 982.5 hPa | 0 mm | 3.13 m/s, 345° | - | - |
| 1778033102 | 19.44° C | 77% | 982.5 hPa | 0 mm | 2.68 m/s, 339° | - | - |
| 1778032802 | 18.89° C | 77% | 982.6 hPa | 0 mm | 2.24 m/s, 242° | - | - |
| 1778032502 | 18.89° C | 78% | 982.4 hPa | 0 mm | 2.68 m/s, 326° | - | - |
| 1778032202 | 18.89° C | 79% | 982.5 hPa | 0 mm | 2.24 m/s, 298° | - | - |
| 1778031902 | 18.33° C | 80% | 982.7 hPa | 0 mm | 2.24 m/s, 237° | - | - |
| 1778031602 | 18.33° C | 81% | 982.8 hPa | 0 mm | 2.24 m/s, 316° | - | - |
| 1778031302 | 17.78° C | 84% | 982.9 hPa | 0 mm | 2.24 m/s, 355° | - | - |
| 1778031002 | 17.78° C | 85% | 982.9 hPa | 0 mm | 1.79 m/s, 328° | - | - |
| 1778030702 | 17.22° C | 86% | 983 hPa | 0 mm | 1.79 m/s, 321° | - | - |
| 1778030402 | 17.22° C | 87% | 983.1 hPa | 0 mm | 1.79 m/s, 337° | - | - |
| 1778030102 | 17.22° C | 89% | 983.2 hPa | 0 mm | 1.79 m/s, 216° | - | - |
| 1778029802 | 16.67° C | 90% | 983.1 hPa | 0 mm | 1.79 m/s, 212° | - | - |
| 1778029502 | 16.67° C | 91% | 983.1 hPa | 0 mm | 1.34 m/s, 208° | - | - |
| 1778029202 | 16.67° C | 91% | 983.1 hPa | 0 mm | 1.34 m/s, 258° | - | - |
| 1778028901 | 16.67° C | 92% | 983.1 hPa | 0 mm | 1.79 m/s, 175° | - | - |
| 1778028602 | 16.67° C | 91% | 983 hPa | 0 mm | 1.79 m/s, 205° | - | - |
| 1778028302 | 16.67° C | 91% | 983.1 hPa | 0 mm | 0.89 m/s, 269° | - | - |
| 1778028002 | 16.67° C | 91% | 983.1 hPa | 0 mm | 1.79 m/s, 192° | - | - |
| 1778027702 | 16.67° C | 91% | 983 hPa | 0 mm | 1.79 m/s, 177° | - | - |
| 1778027402 | 16.67° C | 91% | 983 hPa | 0 mm | 1.34 m/s, 196° | - | - |
| 1778027102 | 17.22° C | 90% | 983 hPa | 0 mm | 1.79 m/s, 182° | - | - |
| 1778026802 | 17.22° C | 90% | 983 hPa | 0 mm | 1.79 m/s, 183° | - | - |
* Rain latest hour (hover to see other rain measurements)
** Current wind speed in m/s (hover to see current wind gust speed)